Air Resources Laboratory banner image
Air Resources Laboratory web site National Oceanic and Atmospheric Administration (NOAA)

dc zone


SCZ050-WAZ558-NCZ071-TXZ119-213-PAZ071-DCZ001-FLZ074-172-MI076-
NYZ176-178-MAZ016-IL014-TNZ027-NJZ106-GAZ044-MD014-161600-

...Gateway Observations for Charleston International...

CITY           SKY/WX    TMP DP  RH WIND       PRES   REMARKS
Chas Airport   PTSUNNY   87  73  62 S7        30.06S HX  94
Seattle        MOSUNNY   68  52  56 NW5       30.04R
Charlotte      CLOUDY    81  74  79 S6        30.08S
Dallas DFW     MOSUNNY   87  71  58 S9        30.03R HX  93
Dallas Love    MOSUNNY   87  72  60 S8        30.04R HX  93
Philladelphia  FAIR      86  68  54 SW10      29.99F
Wash National  FAIR      87  73  62 SE6       30.00S HX  94
Baltimore      FAIR      88  72  58 VRB5      29.99F HX  94
Miami          PTSUNNY   87  73  62 S5        30.09S HX  94
Detroit        PTSUNNY   84  72  67 SW7       29.94S
Newark         FAIR      89  72  56 SW10      29.97F HX  96
Laguardia      FAIR      88  69  53 SW9       29.97F HX  92
J F K          FAIR      84  74  71 SW6       29.99F HX  91
Boston Logan   PTSUNNY   72  67  84 E8        30.01S FOG
Ft. Lauderdale PTSUNNY   88  73  61 CALM      30.09R HX  95
Chicago O'Hare PTSUNNY   84  72  67 VRB6      29.94R
Chicago Midway PTSUNNY   87  73  62 W7        29.93S HX  94
Houston Bush   FAIR      87  78  74 SW7       30.07R HX 100
Houston Hobby  FAIR      85  78  80 SW10      30.06S HX  96
Nashville      PTSUNNY   80  73  79 W6        30.05S
Atlanta        CLOUDY    79  73  82 SW6       30.08F


GAZ044-118-TXZ119-213-NCZ071-DCZ001-MDZ014-506-PAZ021-071-NJZ106-
NYZ176-178-MAZ106-OHZ011-021-055-MIZ076-KYZ091-ILZ014-INZ047-
MNZ060-ONZ431-161600-

...Gateway Observations for Savannah International...

CITY           SKY/WX    TMP DP  RH WIND       PRES   REMARKS
Savannah Arpt  PTSUNNY   88  75  65 W3        30.07R HX  97
Atlanta        CLOUDY    79  73  82 SW6       30.08F
Charlotte      CLOUDY    81  74  79 S6        30.08S
Dallas DFW     MOSUNNY   87  71  58 S9        30.03R HX  93
Houston Bush   FAIR      87  78  74 SW7       30.07R HX 100
Wash National  FAIR      87  73  62 SE6       30.00S HX  94
Wash Dulles    FAIR      86  71  60 CALM      30.01S HX  91
Baltimore      FAIR      88  72  58 VRB5      29.99F HX  94
Philadelphia   FAIR      86  68  54 SW10      29.99F
Newark         FAIR      89  72  56 SW10      29.97F HX  96
Laguardia      FAIR      88  69  53 SW9       29.97F HX  92
J F K          FAIR      84  74  71 SW6       29.99F HX  91
Boston         PTSUNNY   72  67  84 E8        30.01S FOG
Pittsburg      FAIR      81  72  74 SE6       30.01F
Akron          PTSUNNY   84  69  60 SW7       30.01S
Cleveland      PTSUNNY   85  71  63 SW8       29.99S HX  90
Cincinnati     CLOUDY    80  71  74 SW7       30.00S
Columbus       FAIR      79  73  80 SW3       30.00S
Detroit        PTSUNNY   84  72  67 SW7       29.94S
Chicago O'Hare PTSUNNY   84  72  67 VRB6      29.94R
Minneapolis    FAIR      77  59  53 W8        30.05S
Indianapolis   PTSUNNY   81  72  74 S7        29.99R FOG
Toronto Canada NOT AVBL


SCZ050-WAZ558-NCZ071-TXZ119-213-PAZ071-DCZ001-FLZ074-172-MI076-
NYZ176-178-MAZ016-IL014-TNZ027-NJZ106-GAZ044-MD014-161600-

...Gateway Observations for Charleston International...

CITY           SKY/WX    TMP DP  RH WIND       PRES   REMARKS
Chas Airport   PTSUNNY   87  73  62 S7        30.06S HX  94
Seattle        MOSUNNY   68  52  56 NW5       30.04R
Charlotte      CLOUDY    81  74  79 S6        30.08S
Dallas DFW     MOSUNNY   87  71  58 S9        30.03R HX  93
Dallas Love    MOSUNNY   87  72  60 S8        30.04R HX  93
Philladelphia  FAIR      86  68  54 SW10      29.99F
Wash National  FAIR      87  73  62 SE6       30.00S HX  94
Baltimore      FAIR      88  72  58 VRB5      29.99F HX  94
Miami          PTSUNNY   87  73  62 S5        30.09S HX  94
Detroit        PTSUNNY   84  72  67 SW7       29.94S
Newark         FAIR      89  72  56 SW10      29.97F HX  96
Laguardia      FAIR      88  69  53 SW9       29.97F HX  92
J F K          FAIR      84  74  71 SW6       29.99F HX  91
Boston Logan   PTSUNNY   72  67  84 E8        30.01S FOG
Ft. Lauderdale PTSUNNY   88  73  61 CALM      30.09R HX  95
Chicago O'Hare PTSUNNY   84  72  67 VRB6      29.94R
Chicago Midway PTSUNNY   87  73  62 W7        29.93S HX  94
Houston Bush   FAIR      87  78  74 SW7       30.07R HX 100
Houston Hobby  FAIR      85  78  80 SW10      30.06S HX  96
Nashville      PTSUNNY   82  72  71 W3        30.05S
Atlanta        CLOUDY    79  73  82 SW6       30.08F


GAZ044-118-TXZ119-213-NCZ071-DCZ001-MDZ014-506-PAZ021-071-NJZ106-
NYZ176-178-MAZ106-OHZ011-021-055-MIZ076-KYZ091-ILZ014-INZ047-
MNZ060-ONZ431-161600-

...Gateway Observations for Savannah International...

CITY           SKY/WX    TMP DP  RH WIND       PRES   REMARKS
Savannah Arpt  PTSUNNY   88  75  65 W3        30.07R HX  97
Atlanta        CLOUDY    79  73  82 SW6       30.08F
Charlotte      CLOUDY    81  74  79 S6        30.08S
Dallas DFW     MOSUNNY   87  71  58 S9        30.03R HX  93
Houston Bush   FAIR      87  78  74 SW7       30.07R HX 100
Wash National  FAIR      87  73  62 SE6       30.00S HX  94
Wash Dulles    FAIR      86  71  60 CALM      30.01S HX  91
Baltimore      FAIR      88  72  58 VRB5      29.99F HX  94
Philadelphia   FAIR      86  68  54 SW10      29.99F
Newark         FAIR      89  72  56 SW10      29.97F HX  96
Laguardia      FAIR      88  69  53 SW9       29.97F HX  92
J F K          FAIR      84  74  71 SW6       29.99F HX  91
Boston         PTSUNNY   72  67  84 E8        30.01S FOG
Pittsburg      FAIR      81  72  74 SE6       30.01F
Akron          PTSUNNY   84  69  60 SW7       30.01S
Cleveland      PTSUNNY   85  71  63 SW8       29.99S HX  90
Cincinnati     CLOUDY    80  71  74 SW7       30.00S
Columbus       PTSUNNY   80  72  76 SE3       29.99F
Detroit        PTSUNNY   84  72  67 SW7       29.94S
Chicago O'Hare PTSUNNY   84  72  67 VRB6      29.94R
Minneapolis    FAIR      77  59  53 W8        30.05S
Indianapolis   PTSUNNY   81  72  74 S7        29.99R FOG
Toronto Canada PTSUNNY   82  70  65 S9        29.91




FEUS71 KLWX 161432 EOLLWX Baltimore and Washington DC Enhanced Metro Forecast/Outlook National Weather Service Baltimore MD/Washington DC 1032 AM EDT Mon Jul 16 2018 DCZ001-MDZ004-013-016-503-504-VAZ052>054-506-161800- Washington DC Greater Metropolitan Area Forecast .REST OF TODAY...Mostly sunny. A chance of showers with a slight chance of thunderstorms this afternoon. Highs in the lower 90s. South winds 5 to 10 mph. Chance of rain 40 percent. Heat index values up to 101. .TONIGHT...Mostly cloudy with a chance of showers with a slight chance of thunderstorms in the evening, then partly cloudy with a slight chance of showers after midnight. Lows in the mid 70s. South winds 5 to 10 mph. Chance of rain 40 percent. .TUESDAY...Showers likely in the morning, then showers and thunderstorms likely in the afternoon. Highs in the upper 80s. Southwest winds 5 to 10 mph. Chance of rain 70 percent. .TUESDAY NIGHT...Mostly cloudy with showers and thunderstorms likely in the evening, then partly cloudy with a chance of showers and thunderstorms after midnight. Lows in the upper 60s. Northwest winds 5 to 10 mph. Chance of rain 70 percent. .WEDNESDAY...Sunny. Highs in the mid 80s. North winds 5 to 10 mph. .WEDNESDAY NIGHT...Mostly clear. Lows in the mid 60s. .THURSDAY...Sunny. Highs in the mid 80s. .THURSDAY NIGHT...Mostly clear. Lows in the mid 60s. .FRIDAY...Mostly sunny. Highs in the mid 80s. .FRIDAY NIGHT...Partly cloudy. Lows in the upper 60s. .SATURDAY...Partly sunny with a chance of showers. Highs in the mid 80s. Chance of rain 50 percent. .SATURDAY NIGHT...Mostly cloudy with a chance of showers. Lows in the upper 60s. Chance of rain 50 percent. .SUNDAY...Showers likely with a chance of thunderstorms. Highs in the mid 80s. Chance of rain 60 percent. $$ MDZ005-011-014-505>508-161800- Baltimore Greater Metropolitan Area Forecast .REST OF TODAY...Mostly sunny. A chance of showers with a slight chance of thunderstorms this afternoon. Highs in the lower 90s. South winds 5 to 10 mph. Chance of rain 40 percent. Heat index values up to 101. .TONIGHT...Mostly cloudy with a chance of showers with a slight chance of thunderstorms in the evening, then partly cloudy with a slight chance of showers after midnight. Lows in the mid 70s. South winds 5 to 10 mph. Chance of rain 40 percent. .TUESDAY...Showers likely in the morning, then showers and thunderstorms likely in the afternoon. Highs in the upper 80s. Southwest winds 5 to 10 mph. Chance of rain 70 percent. .TUESDAY NIGHT...Mostly cloudy with showers and thunderstorms likely in the evening, then partly cloudy with a chance of showers and thunderstorms after midnight. Lows in the upper 60s. Northwest winds 5 to 10 mph. Chance of rain 70 percent. .WEDNESDAY...Sunny. Highs in the mid 80s. North winds 5 to 10 mph. .WEDNESDAY NIGHT...Mostly clear. Lows in the lower 60s. .THURSDAY...Sunny. Highs in the mid 80s. .THURSDAY NIGHT...Mostly clear. Lows in the mid 60s. .FRIDAY...Mostly sunny. Highs in the mid 80s. .FRIDAY NIGHT...Partly cloudy. Lows in the upper 60s. .SATURDAY...Partly sunny with a chance of showers. Highs in the mid 80s. Chance of rain 50 percent. .SATURDAY NIGHT...Mostly cloudy with a chance of showers. Lows in the upper 60s. Chance of rain 50 percent. .SUNDAY...Showers likely with a chance of thunderstorms. Highs in the mid 80s. Chance of rain 60 percent. $$ FEUS71 KLWX 161455 EOLLWX Baltimore and Washington DC Enhanced Metro Forecast/Outlook National Weather Service Baltimore MD/Washington DC 1055 AM EDT Mon Jul 16 2018 DCZ001-MDZ004-013-016-503-504-VAZ052>054-506-161800- Washington DC Greater Metropolitan Area Forecast .REST OF TODAY...Mostly sunny. A chance of showers with a slight chance of thunderstorms this afternoon. Highs in the lower 90s. Southwest winds 5 to 10 mph. Chance of rain 40 percent. Heat index values up to 100. .TONIGHT...Mostly cloudy with a chance of showers with a slight chance of thunderstorms in the evening, then partly cloudy with a slight chance of showers after midnight. Lows in the mid 70s. South winds 5 to 10 mph. Chance of rain 40 percent. .TUESDAY...Showers likely in the morning, then showers and thunderstorms likely in the afternoon. Highs in the upper 80s. Southwest winds 5 to 10 mph. Chance of rain 70 percent. .TUESDAY NIGHT...Mostly cloudy with showers and thunderstorms likely in the evening, then partly cloudy with a chance of showers and thunderstorms after midnight. Lows in the upper 60s. Northwest winds 5 to 10 mph. Chance of rain 70 percent. .WEDNESDAY...Sunny. Highs in the mid 80s. North winds 5 to 10 mph. .WEDNESDAY NIGHT...Mostly clear. Lows in the mid 60s. .THURSDAY...Sunny. Highs in the mid 80s. .THURSDAY NIGHT...Mostly clear. Lows in the mid 60s. .FRIDAY...Mostly sunny. Highs in the mid 80s. .FRIDAY NIGHT...Partly cloudy. Lows in the upper 60s. .SATURDAY...Partly sunny with a chance of showers. Highs in the mid 80s. Chance of rain 50 percent. .SATURDAY NIGHT...Mostly cloudy with a chance of showers. Lows in the upper 60s. Chance of rain 50 percent. .SUNDAY...Showers likely with a chance of thunderstorms. Highs in the mid 80s. Chance of rain 60 percent. $$ MDZ005-011-014-505>508-161800- Baltimore Greater Metropolitan Area Forecast .REST OF TODAY...Mostly sunny. A chance of showers with a slight chance of thunderstorms this afternoon. Highs in the lower 90s. South winds 5 to 10 mph. Chance of rain 40 percent. Heat index values up to 100. .TONIGHT...Mostly cloudy with a chance of showers with a slight chance of thunderstorms in the evening, then partly cloudy with a slight chance of showers after midnight. Lows in the mid 70s. South winds 5 to 10 mph. Chance of rain 40 percent. .TUESDAY...Showers likely in the morning, then showers and thunderstorms likely in the afternoon. Highs in the upper 80s. Southwest winds 5 to 10 mph. Chance of rain 70 percent. .TUESDAY NIGHT...Mostly cloudy with showers and thunderstorms likely in the evening, then partly cloudy with a chance of showers and thunderstorms after midnight. Lows in the upper 60s. Northwest winds 5 to 10 mph. Chance of rain 70 percent. .WEDNESDAY...Sunny. Highs in the mid 80s. North winds 5 to 10 mph. .WEDNESDAY NIGHT...Mostly clear. Lows in the lower 60s. .THURSDAY...Sunny. Highs in the mid 80s. .THURSDAY NIGHT...Mostly clear. Lows in the mid 60s. .FRIDAY...Mostly sunny. Highs in the mid 80s. .FRIDAY NIGHT...Partly cloudy. Lows in the upper 60s. .SATURDAY...Partly sunny with a chance of showers. Highs in the mid 80s. Chance of rain 50 percent. .SATURDAY NIGHT...Mostly cloudy with a chance of showers. Lows in the upper 60s. Chance of rain 50 percent. .SUNDAY...Showers likely with a chance of thunderstorms. Highs in the mid 80s. Chance of rain 60 percent. $$